This is the latest recevied weather packets stored in our database for station/object WA6MHA-11. If no packets are shown the sender has not sent any weather packets the latest 10 day(s).
| Time | Temp. | Humidity | Pressure | Rain* | Wind** | Luminosity | Snow |
|---|---|---|---|---|---|---|---|
| 1777946417 | 18.89° C | 36% | - | 0 mm | - | - | - |
| 1777946415 | 18.89° C | 36% | 1015.1 hPa | 0 mm | - | - | - |
| 1777946172 | 19.44° C | 36% | 1015.1 hPa | 0 mm | - | - | - |
| 1777945931 | 19.44° C | 36% | 1015.1 hPa | 0 mm | - | - | - |
| 1777945690 | 19.44° C | 36% | 1015 hPa | 0 mm | - | - | - |
| 1777944968 | 19.44° C | 36% | 1015 hPa | 0 mm | - | - | - |
| 1777944485 | 19.44° C | 35% | 1015.2 hPa | 0 mm | - | - | - |
| 1777944000 | 18.89° C | 34% | 1015.2 hPa | 0 mm | - | - | - |
| 1777943518 | 19.44° C | 33% | 1015.3 hPa | 0 mm | - | - | - |
| 1777943275 | 19.44° C | 33% | 1015.3 hPa | 0 mm | - | - | - |
| 1777942552 | 19.44° C | 33% | 1015.4 hPa | 0 mm | - | - | - |
| 1777942313 | 20° C | 33% | 1015.4 hPa | 0 mm | - | - | - |
| 1777942070 | 20° C | 32% | 1015.2 hPa | 0 mm | - | - | - |
| 1777941586 | 20.56° C | 32% | 1015.3 hPa | 0 mm | - | - | - |
| 1777940865 | 21.11° C | 31% | 1015.3 hPa | 0 mm | - | - | - |
| 1777940380 | 21.67° C | 31% | 1015.3 hPa | 0 mm | - | - | - |
| 1777940139 | 22.22° C | 30% | 1015.3 hPa | 0 mm | - | - | - |
| 1777939667 | 22.22° C | 31% | 1015.1 hPa | 0 mm | - | - | - |
| 1777939665 | 22.22° C | 31% | 1015.1 hPa | 0 mm | - | - | - |
| 1777939416 | 22.78° C | 30% | 1015.1 hPa | 0 mm | - | - | - |
| 1777938694 | 23.33° C | 30% | 1015.1 hPa | 0 mm | - | - | - |
| 1777938450 | 23.89° C | 30% | 1015.2 hPa | 0 mm | - | - | - |
| 1777938215 | 23.33° C | 30% | 1015.1 hPa | 0 mm | - | - | - |
| 1777937726 | 23.89° C | 30% | 1015.1 hPa | 0 mm | - | - | - |
| 1777937496 | 23.33° C | 30% | 1015.2 hPa | 0 mm | - | - | - |
* Rain since midnight (hover to see other rain measurements)
** Current wind speed in m/s (hover to see current wind gust speed)